Location: Austin
(30.3000°N, 97.7500°W)
Time: 06:26:50
(UTC-05:00)

SL-4 R/B - Pass Details

Date: 16 June 2025
Orbit: 394 x 546 km, 51.6° (Epoch: 07 July)

Event Time Altitude Azimuth Distance (km) Brightness Sun altitude
Rises 05:38:48 0° 326° (NW) 2,569 5.5 -10.1°
Reaches altitude 10° 05:41:17 10° 339° (NNW) 1,654 4.6 -9.6°
Maximum altitude 05:44:29 27° 38° (NE) 925 4.1 -9.1°
Drops below altitude 10° 05:47:33 10° 98° (E) 1,568 5.1 -8.5°
Sets 05:49:50 0° 111° (ESE) 2,406 5.8 -8.1°
